Weather History for Keahole Point, HI

Change the Weather History Date:

Sunday, December 16, 2012

  Actual Average Record
Temperature  
Mean Temperature 74 °F -  
Max Temperature 80 °F 80 °F 87 °F (1982)
Min Temperature 68 °F 68 °F 64 °F (1989)
Cooling Degree Days 9    
Growing Degree Days 24 (Base 50)    
Moisture  
Dew Point 61 °F    
Average Humidity 62    
Maximum Humidity 70    
Minimum Humidity 54    
Precipitation  
Precipitation 0.00 in - - ()
Sea Level Pressure  
Sea Level Pressure 30.03 in    
Wind  
Wind Speed 6 mph (SE)    
Max Wind Speed 13 mph    
Max Gust Speed -    
Visibility 10 miles    
Events      
Averages and records for this station are not official NWS values.
T = Trace of Precipitation, MM = Missing Value Source: NWS Daily Summary

Daily Weather History Graph

Daily Weather History Graph

Search for Another Location

Airport:

Trip Planner

Search our weather history database for the weather conditions in past years. The results will help you decide how hot, cold, wet, or windy it might be!

Date:

Astronomy

Dec. 16, 2012 Rise Set
Actual Time 6:51 AM HST 5:48 PM HST
Civil Twilight 6:27 AM HST 6:12 PM HST
Nautical Twilight 6:00 AM HST 6:40 PM HST
Astronomical Twilight 5:33 AM HST 7:07 PM HST
Moon 9:55 AM HST (12/16) 9:47 PM HST (12/16)
Length of Visible Light 11h 44m
Length of Day
10h 56m
Waxing Crescent, 17% of the Moon is Illuminated
Dec 16
Waxing Crescent
Dec 19
First Quarter
Dec 28
Full
Jan 4
Last Quarter
Jan 11
New

Hourly Weather History & Observations

Time (HST) Temp. Heat Index Dew Point Humidity Pressure Visibility Wind Dir Wind Speed Gust Speed Precip Events Conditions
12:53 AM 73.0 °F - 57.0 °F 57% 30.06 in 10.0 mi ESE 5.8 mph - N/A   Clear
1:53 AM 71.1 °F - 55.9 °F 59% 30.05 in 10.0 mi NE 4.6 mph - N/A   Clear
2:53 AM 70.0 °F - 55.9 °F 61% 30.03 in 10.0 mi ENE 3.5 mph - N/A   Clear
3:53 AM 70.0 °F - 55.9 °F 61% 30.03 in 10.0 mi ESE 5.8 mph - N/A   Clear
4:53 AM 71.1 °F - 57.9 °F 63% 30.02 in 10.0 mi East 3.5 mph - N/A   Clear
5:53 AM 70.0 °F - 57.9 °F 65% 30.02 in 10.0 mi East 5.8 mph - N/A   Clear
6:53 AM 68.0 °F - 57.9 °F 70% 30.04 in 10.0 mi ENE 5.8 mph - N/A   Clear
7:53 AM 72.0 °F - 57.9 °F 61% 30.04 in 10.0 mi East 3.5 mph - N/A   Clear
8:53 AM 75.9 °F - 61.0 °F 60% 30.06 in 10.0 mi Calm Calm - N/A   Clear
9:53 AM 78.1 °F - 61.0 °F 56% 30.06 in 10.0 mi South 9.2 mph - N/A   Clear
10:53 AM 79.0 °F - 61.0 °F 54% 30.05 in 10.0 mi SSW 12.7 mph - N/A   Clear
11:53 AM 79.0 °F - 64.0 °F 60% 30.03 in 10.0 mi SSW 9.2 mph - N/A   Clear
12:53 PM 80.1 °F 81.5 °F 63.0 °F 56% 30.00 in 10.0 mi SW 10.4 mph - N/A   Clear
1:53 PM 80.1 °F 81.7 °F 64.0 °F 58% 29.98 in 10.0 mi SSW 9.2 mph - N/A   Clear
2:53 PM 79.0 °F - 64.0 °F 60% 29.97 in 10.0 mi WSW 9.2 mph - N/A   Clear
3:53 PM 79.0 °F - 64.0 °F 60% 29.96 in 10.0 mi South 9.2 mph - N/A   Clear
4:53 PM 78.1 °F - 64.9 °F 64% 29.98 in 10.0 mi South 10.4 mph - N/A   Clear
5:53 PM 77.0 °F - 64.9 °F 66% 30.00 in 10.0 mi South 6.9 mph - N/A   Partly Cloudy
6:53 PM 75.9 °F - 64.9 °F 69% 30.02 in 10.0 mi South 8.1 mph - N/A   Partly Cloudy
7:53 PM 75.9 °F - 64.9 °F 69% 30.04 in 10.0 mi SSE 5.8 mph - N/A   Mostly Cloudy
8:53 PM 73.9 °F - 63.0 °F 68% 30.04 in 10.0 mi ESE 6.9 mph - N/A   Clear
9:53 PM 73.0 °F - 62.1 °F 68% 30.05 in 10.0 mi East 4.6 mph - N/A   Clear
10:53 PM 72.0 °F - 59.0 °F 64% 30.04 in 10.0 mi ESE 5.8 mph - N/A   Clear
11:53 PM 72.0 °F - 57.0 °F 59% 30.03 in 10.0 mi SE 3.5 mph - N/A   Clear